Time,TemperatureF,DewpointF,PressureIn,WindDirection,WindDirectionDegrees,WindSpeedMPH,WindSpeedGustMPH,Humidity,HourlyPrecipIn,Conditions,Clouds,dailyrainin,SoftwareType,DateUTC
2013-12-17 00:02:00,70.4,61.3,30.00,NNW,345,4.0,17.0,73,0.00,,,0.00,Weather View 32 v70,2013-12-17 10:02:00,
2013-12-17 00:07:00,70.3,61.2,30.00,North,2,5.0,16.0,73,0.00,,,0.00,Weather View 32 v70,2013-12-17 10:07:00,
2013-12-17 00:12:00,70.1,61.4,30.00,North,5,7.0,16.0,74,0.00,,,0.00,Weather View 32 v70,2013-12-17 10:12:00,
2013-12-17 00:17:00,70.1,62.2,29.99,NNW,343,8.0,16.0,76,0.00,,,0.00,Weather View 32 v70,2013-12-17 10:17:00,
2013-12-17 00:22:00,69.9,62.7,29.99,North,4,9.0,16.0,78,0.00,,,0.00,Weather View 32 v70,2013-12-17 10:22:00,
2013-12-17 00:27:00,69.6,62.4,29.99,NW,305,5.0,16.0,78,0.00,,,0.00,Weather View 32 v70,2013-12-17 10:27:00,
2013-12-17 00:32:00,69.7,62.5,29.99,NW,314,6.0,15.0,78,0.00,,,0.00,Weather View 32 v70,2013-12-17 10:32:00,
2013-12-17 00:37:00,69.6,62.0,29.99,NW,307,11.0,14.0,77,0.00,,,0.00,Weather View 32 v70,2013-12-17 10:37:00,
2013-12-17 00:42:00,69.8,61.9,29.99,NW,321,6.0,12.0,76,0.00,,,0.00,Weather View 32 v70,2013-12-17 10:42:00,
2013-12-17 00:47:00,70.1,61.8,29.99,NW,323,10.0,12.0,75,0.00,,,0.00,Weather View 32 v70,2013-12-17 10:47:00,
2013-12-17 00:55:00,70.3,61.6,29.99,NW,324,7.0,13.0,74,0.00,,,0.00,Weather View 32 v70,2013-12-17 10:55:00,
2013-12-17 00:56:00,70.4,61.7,29.99,NW,318,9.0,13.0,74,0.00,,,0.00,Weather View 32 v70,2013-12-17 10:56:00,
2013-12-17 00:57:00,70.4,61.7,29.99,NW,312,6.0,13.0,74,0.00,,,0.00,Weather View 32 v70,2013-12-17 10:57:00,
2013-12-17 00:58:00,70.4,61.3,29.99,NW,312,9.0,13.0,73,0.00,,,0.00,Weather View 32 v70,2013-12-17 10:58:00,
2013-12-17 00:59:00,70.5,61.4,29.99,NNW,337,6.0,13.0,73,0.00,,,0.00,Weather View 32 v70,2013-12-17 10:59:00,
2013-12-17 01:00:00,70.6,61.5,29.99,NW,309,8.0,13.0,73,0.00,,,0.00,Weather View 32 v70,2013-12-17 11:00:00,
2013-12-17 01:01:00,70.6,61.5,29.99,NNW,336,6.0,13.0,73,0.00,,,0.00,Weather View 32 v70,2013-12-17 11:01:00,
2013-12-17 01:02:00,70.6,61.1,29.99,NNW,330,6.0,13.0,72,0.00,,,0.00,Weather View 32 v70,2013-12-17 11:02:00,
2013-12-17 01:03:00,70.5,61.0,29.99,NW,311,7.0,13.0,72,0.00,,,0.00,Weather View 32 v70,2013-12-17 11:03:00,
2013-12-17 01:13:00,70.5,61.0,29.99,NW,315,6.0,13.0,72,0.00,,,0.00,Weather View 32 v70,2013-12-17 11:13:00,
2013-12-17 01:18:00,70.4,61.3,30.00,North,8,4.0,13.0,73,0.00,,,0.00,Weather View 32 v70,2013-12-17 11:18:00,
2013-12-17 01:23:00,70.0,61.3,30.00,NNE,21,3.0,13.0,74,0.00,,,0.00,Weather View 32 v70,2013-12-17 11:23:00,
2013-12-17 01:28:00,69.8,61.1,30.00,North,11,6.0,13.0,74,0.00,,,0.00,Weather View 32 v70,2013-12-17 11:28:00,
2013-12-17 01:33:00,69.7,61.0,29.99,North,4,6.0,13.0,74,0.00,,,0.00,Weather View 32 v70,2013-12-17 11:33:00,
2013-12-17 01:38:00,69.7,62.1,29.99,North,350,11.0,15.0,77,0.00,,,0.00,Weather View 32 v70,2013-12-17 11:38:00,
2013-12-17 01:43:00,69.5,62.7,30.00,North,359,13.0,15.0,79,0.00,,,0.00,Weather View 32 v70,2013-12-17 11:43:00,
2013-12-17 01:48:00,69.4,63.3,30.00,North,357,12.0,16.0,81,0.00,,,0.00,Weather View 32 v70,2013-12-17 11:48:00,
2013-12-17 01:53:00,69.2,63.5,30.00,NW,313,8.0,16.0,82,0.00,,,0.00,Weather View 32 v70,2013-12-17 11:53:00,
2013-12-17 01:58:00,69.1,63.4,30.00,North,351,8.0,16.0,82,0.00,,,0.00,Weather View 32 v70,2013-12-17 11:58:00,
2013-12-17 02:03:00,69.3,63.2,29.99,North,2,8.0,16.0,81,0.00,,,0.00,Weather View 32 v70,2013-12-17 12:03:00,
2013-12-17 02:08:00,69.3,63.2,30.00,NNW,337,8.0,16.0,81,0.00,,,0.00,Weather View 32 v70,2013-12-17 12:08:00,
2013-12-17 02:13:00,69.2,63.5,30.00,North,358,13.0,16.0,82,0.00,,,0.00,Weather View 32 v70,2013-12-17 12:13:00,
2013-12-17 02:18:00,69.1,63.7,29.99,NW,309,6.0,16.0,83,0.00,,,0.00,Weather View 32 v70,2013-12-17 12:18:00,
2013-12-17 02:23:00,69.1,63.4,29.99,North,355,14.0,16.0,82,0.00,,,0.00,Weather View 32 v70,2013-12-17 12:23:00,
2013-12-17 02:28:00,69.2,63.1,29.99,North,353,9.0,16.0,81,0.00,,,0.00,Weather View 32 v70,2013-12-17 12:28:00,
2013-12-17 02:33:00,69.3,62.5,29.99,North,349,9.0,16.0,79,0.00,,,0.00,Weather View 32 v70,2013-12-17 12:33:00,
2013-12-17 02:38:00,69.5,62.3,29.99,NNE,21,8.0,16.0,78,0.00,,,0.00,Weather View 32 v70,2013-12-17 12:38:00,
2013-12-17 02:43:00,69.5,61.9,29.99,North,352,10.0,16.0,77,0.00,,,0.00,Weather View 32 v70,2013-12-17 12:43:00,
2013-12-17 02:48:00,69.8,61.9,29.99,NNW,337,7.0,16.0,76,0.00,,,0.00,Weather View 32 v70,2013-12-17 12:48:00,
2013-12-17 02:53:00,69.6,61.3,29.99,North,349,7.0,16.0,75,0.00,,,0.00,Weather View 32 v70,2013-12-17 12:53:00,
2013-12-17 02:58:00,69.6,62.0,29.99,North,357,10.0,16.0,77,0.00,,,0.00,Weather View 32 v70,2013-12-17 12:58:00,
2013-12-17 03:03:00,69.3,61.8,29.99,NW,322,6.0,16.0,77,0.00,,,0.00,Weather View 32 v70,2013-12-17 13:03:00,
2013-12-17 03:08:00,69.2,61.3,29.99,NNW,341,7.0,16.0,76,0.00,,,0.00,Weather View 32 v70,2013-12-17 13:08:00,
2013-12-17 03:13:00,69.3,61.4,29.99,NNW,335,8.0,16.0,76,0.00,,,0.00,Weather View 32 v70,2013-12-17 13:13:00,
2013-12-17 03:18:00,69.2,61.3,29.99,North,355,8.0,16.0,76,0.00,,,0.00,Weather View 32 v70,2013-12-17 13:18:00,
2013-12-17 03:23:00,69.3,61.0,29.99,NNW,337,3.0,15.0,75,0.00,,,0.00,Weather View 32 v70,2013-12-17 13:23:00,
2013-12-17 03:28:00,69.4,60.7,29.99,North,1,4.0,15.0,74,0.00,,,0.00,Weather View 32 v70,2013-12-17 13:28:00,
2013-12-17 03:33:00,69.4,60.7,29.99,NW,320,3.0,15.0,74,0.00,,,0.00,Weather View 32 v70,2013-12-17 13:33:00,
2013-12-17 03:38:00,69.6,60.1,29.99,NNW,330,1.0,15.0,72,0.00,,,0.00,Weather View 32 v70,2013-12-17 13:38:00,
2013-12-17 03:43:00,69.8,59.9,29.99,NNE,17,5.0,15.0,71,0.00,,,0.00,Weather View 32 v70,2013-12-17 13:43:00,
2013-12-17 03:48:00,70.0,59.3,30.00,NNW,339,0.0,15.0,69,0.00,,,0.00,Weather View 32 v70,2013-12-17 13:48:00,
2013-12-17 03:53:00,69.7,59.4,30.00,NNW,330,5.0,15.0,70,0.00,,,0.00,Weather View 32 v70,2013-12-17 13:53:00,
2013-12-17 03:58:00,69.8,59.1,30.00,North,6,3.0,11.0,69,0.00,,,0.00,Weather View 32 v70,2013-12-17 13:58:00,
2013-12-17 04:03:00,69.9,59.2,30.00,NNE,20,5.0,11.0,69,0.00,,,0.00,Weather View 32 v70,2013-12-17 14:03:00,
2013-12-17 04:08:00,70.1,59.4,30.00,North,355,7.0,11.0,69,0.00,,,0.00,Weather View 32 v70,2013-12-17 14:08:00,
2013-12-17 04:13:00,70.3,59.6,30.00,NNW,339,6.0,10.0,69,0.00,,,0.00,Weather View 32 v70,2013-12-17 14:13:00,
2013-12-17 04:18:00,70.1,59.4,30.00,NNW,336,4.0,10.0,69,0.00,,,0.00,Weather View 32 v70,2013-12-17 14:18:00,
2013-12-17 04:23:00,70.1,59.0,30.00,NW,323,7.0,8.0,68,0.00,,,0.00,Weather View 32 v70,2013-12-17 14:23:00,
2013-12-17 04:28:00,70.4,59.3,30.00,NNW,332,6.0,9.0,68,0.00,,,0.00,Weather View 32 v70,2013-12-17 14:28:00,
2013-12-17 04:32:00,70.6,59.1,30.00,North,353,6.0,9.0,67,0.00,,,0.00,Weather View 32 v70,2013-12-17 14:32:00,
2013-12-17 04:37:00,70.7,59.6,30.00,North,357,10.0,12.0,68,0.00,,,0.00,Weather View 32 v70,2013-12-17 14:37:00,
2013-12-17 04:42:00,70.7,59.6,30.00,NNW,330,6.0,12.0,68,0.00,,,0.00,Weather View 32 v70,2013-12-17 14:42:00,
2013-12-17 04:47:00,70.7,59.2,30.00,NNW,339,10.0,12.0,67,0.00,,,0.00,Weather View 32 v70,2013-12-17 14:47:00,
2013-12-17 04:52:00,71.1,59.1,30.00,NNW,341,9.0,12.0,66,0.00,,,0.00,Weather View 32 v70,2013-12-17 14:52:00,
2013-12-17 04:57:00,71.2,58.8,30.00,North,352,11.0,13.0,65,0.00,,,0.00,Weather View 32 v70,2013-12-17 14:57:00,
2013-12-17 05:02:00,71.2,58.8,30.00,NNW,341,9.0,14.0,65,0.00,,,0.00,Weather View 32 v70,2013-12-17 15:02:00,
2013-12-17 05:07:00,71.2,59.2,30.00,NW,309,6.0,14.0,66,0.00,,,0.00,Weather View 32 v70,2013-12-17 15:07:00,
2013-12-17 05:12:00,71.2,59.2,30.00,NW,315,9.0,14.0,66,0.00,,,0.00,Weather View 32 v70,2013-12-17 15:12:00,
2013-12-17 05:17:00,71.2,59.6,30.00,NW,317,5.0,14.0,67,0.00,,,0.00,Weather View 32 v70,2013-12-17 15:17:00,
2013-12-17 05:22:00,70.8,59.3,30.00,NNW,331,6.0,14.0,67,0.00,,,0.00,Weather View 32 v70,2013-12-17 15:22:00,
2013-12-17 05:27:00,70.6,59.5,30.00,NNW,337,7.0,14.0,68,0.00,,,0.00,Weather View 32 v70,2013-12-17 15:27:00,
2013-12-17 05:32:00,70.7,59.6,30.00,NNW,333,6.0,14.0,68,0.00,,,0.00,Weather View 32 v70,2013-12-17 15:32:00,
2013-12-17 05:37:00,70.8,60.1,30.00,NNW,337,12.0,14.0,69,0.00,,,0.00,Weather View 32 v70,2013-12-17 15:37:00,
2013-12-17 05:42:00,70.7,60.0,30.00,North,5,6.0,14.0,69,0.00,,,0.00,Weather View 32 v70,2013-12-17 15:42:00,
2013-12-17 05:47:00,70.7,60.0,30.00,NNW,335,9.0,14.0,69,0.00,,,0.00,Weather View 32 v70,2013-12-17 15:47:00,
2013-12-17 05:52:00,70.8,60.1,30.00,NNW,332,7.0,14.0,69,0.00,,,0.00,Weather View 32 v70,2013-12-17 15:52:00,
2013-12-17 05:57:00,70.9,60.2,30.00,NNW,336,8.0,14.0,69,0.00,,,0.00,Weather View 32 v70,2013-12-17 15:57:00,
2013-12-17 06:02:00,70.9,60.2,30.00,NNW,341,8.0,16.0,69,0.00,,,0.00,Weather View 32 v70,2013-12-17 16:02:00,
2013-12-17 06:07:00,70.9,60.6,30.00,North,355,10.0,16.0,70,0.00,,,0.00,Weather View 32 v70,2013-12-17 16:07:00,
2013-12-17 06:12:00,71.0,60.7,30.00,NNW,339,7.0,16.0,70,0.00,,,0.00,Weather View 32 v70,2013-12-17 16:12:00,
2013-12-17 06:17:00,70.9,60.6,30.00,NNW,338,13.0,16.0,70,0.00,,,0.00,Weather View 32 v70,2013-12-17 16:17:00,
2013-12-17 06:22:00,70.8,60.9,30.00,NW,321,10.0,16.0,71,0.00,,,0.00,Weather View 32 v70,2013-12-17 16:22:00,
2013-12-17 06:27:00,70.6,61.1,30.01,NNW,334,10.0,16.0,72,0.00,,,0.00,Weather View 32 v70,2013-12-17 16:27:00,
2013-12-17 06:32:00,70.6,61.5,30.01,North,355,10.0,16.0,73,0.00,,,0.00,Weather View 32 v70,2013-12-17 16:32:00,
2013-12-17 06:37:00,70.4,61.3,30.01,NW,324,6.0,16.0,73,0.00,,,0.00,Weather View 32 v70,2013-12-17 16:37:00,
2013-12-17 06:42:00,70.3,61.2,30.02,NW,306,6.0,16.0,73,0.00,,,0.00,Weather View 32 v70,2013-12-17 16:42:00,
2013-12-17 06:47:00,70.2,61.5,30.02,North,1,6.0,16.0,74,0.00,,,0.00,Weather View 32 v70,2013-12-17 16:47:00,
2013-12-17 06:52:00,69.9,61.2,30.02,NNW,328,6.0,16.0,74,0.00,,,0.00,Weather View 32 v70,2013-12-17 16:52:00,
2013-12-17 06:57:00,70.1,62.2,30.02,North,352,12.0,16.0,76,0.00,,,0.00,Weather View 32 v70,2013-12-17 16:57:00,
2013-12-17 07:02:00,69.9,62.3,30.02,NNW,337,11.0,16.0,77,0.00,,,0.00,Weather View 32 v70,2013-12-17 17:02:00,
2013-12-17 07:07:00,69.7,62.5,30.03,NNW,345,8.0,16.0,78,0.00,,,0.00,Weather View 32 v70,2013-12-17 17:07:00,
2013-12-17 07:12:00,69.7,62.9,30.03,NNE,14,11.0,16.0,79,0.00,,,0.00,Weather View 32 v70,2013-12-17 17:12:00,
2013-12-17 07:17:00,69.6,63.1,30.03,North,2,9.0,16.0,80,0.00,,,0.00,Weather View 32 v70,2013-12-17 17:17:00,
2013-12-17 07:22:00,69.5,63.4,30.03,North,355,9.0,16.0,81,0.00,,,0.00,Weather View 32 v70,2013-12-17 17:22:00,
2013-12-17 07:27:00,69.5,63.7,30.03,NNW,332,9.0,16.0,82,0.00,,,0.00,Weather View 32 v70,2013-12-17 17:27:00,
2013-12-17 07:32:00,69.6,64.2,30.03,NNE,15,9.0,16.0,83,0.00,,,0.00,Weather View 32 v70,2013-12-17 17:32:00,
2013-12-17 07:37:00,69.6,64.5,30.02,NNW,348,13.0,17.0,84,0.00,,,0.00,Weather View 32 v70,2013-12-17 17:37:00,
2013-12-17 07:42:00,69.5,64.8,30.03,NNW,334,11.0,20.0,85,0.00,,,0.00,Weather View 32 v70,2013-12-17 17:42:00,
2013-12-17 07:47:00,69.6,64.9,30.03,North,9,13.0,20.0,85,0.00,,,0.00,Weather View 32 v70,2013-12-17 17:47:00,
2013-12-17 07:52:00,69.6,65.2,30.03,NNW,347,11.0,21.0,86,0.00,,,0.00,Weather View 32 v70,2013-12-17 17:52:00,
2013-12-17 07:57:00,69.7,65.3,30.03,NNW,342,11.0,21.0,86,0.00,,,0.00,Weather View 32 v70,2013-12-17 17:57:00,
2013-12-17 08:03:00,69.7,65.3,30.03,North,5,14.0,21.0,86,0.00,,,0.00,Weather View 32 v70,2013-12-17 18:03:00,
2013-12-17 08:08:00,69.6,65.2,30.03,NE,34,16.0,21.0,86,0.00,,,0.00,Weather View 32 v70,2013-12-17 18:08:00,
2013-12-17 08:13:00,69.6,65.5,30.04,North,4,14.0,21.0,87,0.00,,,0.00,Weather View 32 v70,2013-12-17 18:13:00,
2013-12-17 08:18:00,69.5,65.4,30.04,North,6,17.0,21.0,87,0.00,,,0.00,Weather View 32 v70,2013-12-17 18:18:00,
2013-12-17 08:23:00,69.8,65.7,30.04,NNE,17,14.0,21.0,87,0.00,,,0.00,Weather View 32 v70,2013-12-17 18:23:00,
2013-12-17 08:29:00,69.7,65.3,30.04,North,359,17.0,21.0,86,0.00,,,0.00,Weather View 32 v70,2013-12-17 18:29:00,
2013-12-17 08:35:00,69.8,65.4,30.05,NNE,19,12.0,21.0,86,0.00,,,0.00,Weather View 32 v70,2013-12-17 18:35:00,
2013-12-17 08:40:00,69.8,65.1,30.05,NNE,29,11.0,21.0,85,0.00,,,0.00,Weather View 32 v70,2013-12-17 18:40:00,
2013-12-17 08:45:00,69.9,65.2,30.04,NNE,23,15.0,21.0,85,0.00,,,0.00,Weather View 32 v70,2013-12-17 18:45:00,
2013-12-17 08:51:00,70.0,65.6,30.05,NNE,12,14.0,21.0,86,0.00,,,0.00,Weather View 32 v70,2013-12-17 18:51:00,
2013-12-17 08:56:00,70.0,64.9,30.05,NNE,23,13.0,21.0,84,0.00,,,0.00,Weather View 32 v70,2013-12-17 18:56:00,
2013-12-17 09:05:00,69.8,65.4,30.06,North,5,16.0,21.0,86,0.00,,,0.00,Weather View 32 v70,2013-12-17 19:05:00,
2013-12-17 09:15:00,70.3,65.6,30.05,North,10,12.0,20.0,85,0.00,,,0.00,Weather View 32 v70,2013-12-17 19:15:00,
2013-12-17 09:25:00,70.2,65.1,30.05,North,355,12.0,20.0,84,0.00,,,0.00,Weather View 32 v70,2013-12-17 19:25:00,
2013-12-17 09:31:00,70.4,65.3,30.05,NE,38,11.0,19.0,84,0.00,,,0.00,Weather View 32 v70,2013-12-17 19:31:00,
2013-12-17 09:36:00,70.4,64.6,30.04,NNE,31,16.0,19.0,82,0.00,,,0.00,Weather View 32 v70,2013-12-17 19:36:00,
2013-12-17 09:41:00,70.4,64.6,30.05,NNE,20,15.0,19.0,82,0.00,,,0.00,Weather View 32 v70,2013-12-17 19:41:00,
2013-12-17 09:46:00,70.5,64.4,30.05,NNE,16,16.0,19.0,81,0.00,,,0.00,Weather View 32 v70,2013-12-17 19:46:00,
2013-12-17 09:52:00,70.8,65.4,30.05,NNE,13,13.0,19.0,83,0.00,,,0.00,Weather View 32 v70,2013-12-17 19:52:00,
2013-12-17 09:57:00,70.9,65.5,30.05,NE,34,12.0,19.0,83,0.00,,,0.00,Weather View 32 v70,2013-12-17 19:57:00,
2013-12-17 10:06:00,70.7,65.3,30.04,NE,47,14.0,18.0,83,0.00,,,0.00,Weather View 32 v70,2013-12-17 20:06:00,
2013-12-17 10:15:00,71.0,65.2,30.05,NE,39,11.0,18.0,82,0.00,,,0.00,Weather View 32 v70,2013-12-17 20:15:00,
2013-12-17 10:25:00,71.1,65.3,30.03,NNE,18,17.0,19.0,82,0.00,,,0.00,Weather View 32 v70,2013-12-17 20:25:00,
2013-12-17 10:30:00,70.9,64.8,30.04,North,6,12.0,19.0,81,0.00,,,0.00,Weather View 32 v70,2013-12-17 20:30:00,
2013-12-17 10:32:00,70.9,64.8,30.04,NNE,13,14.0,19.0,81,0.00,,,0.00,Weather View 32 v70,2013-12-17 20:32:00,
2013-12-17 10:35:00,71.2,64.7,30.04,NE,51,13.0,19.0,80,0.00,,,0.00,Weather View 32 v70,2013-12-17 20:35:00,
2013-12-17 10:38:00,71.3,64.4,30.03,NE,38,16.0,19.0,79,0.00,,,0.00,Weather View 32 v70,2013-12-17 20:38:00,
2013-12-17 10:40:00,71.2,64.7,30.03,NNE,27,10.0,19.0,80,0.00,,,0.00,Weather View 32 v70,2013-12-17 20:40:00,
2013-12-17 10:45:00,71.3,64.8,30.03,NE,43,14.0,19.0,80,0.00,,,0.00,Weather View 32 v70,2013-12-17 20:45:00,
2013-12-17 10:51:00,71.2,64.0,30.03,NNE,21,16.0,19.0,78,0.00,,,0.00,Weather View 32 v70,2013-12-17 20:51:00,
2013-12-17 10:56:00,71.2,64.3,30.03,North,5,15.0,19.0,79,0.00,,,0.00,Weather View 32 v70,2013-12-17 20:56:00,
2013-12-17 11:01:00,71.2,64.3,30.03,NNE,27,12.0,23.0,79,0.00,,,0.00,Weather View 32 v70,2013-12-17 21:01:00,
2013-12-17 11:07:00,71.3,64.1,30.03,NNE,31,15.0,23.0,78,0.00,,,0.00,Weather View 32 v70,2013-12-17 21:07:00,
2013-12-17 11:12:00,71.5,63.9,30.02,NNE,12,14.0,23.0,77,0.00,,,0.00,Weather View 32 v70,2013-12-17 21:12:00,
2013-12-17 11:15:00,71.5,63.1,30.02,North,4,13.0,23.0,75,0.00,,,0.00,Weather View 32 v70,2013-12-17 21:15:00,
2013-12-17 11:18:00,71.7,63.7,30.02,NE,38,18.0,23.0,76,0.00,,,0.00,Weather View 32 v70,2013-12-17 21:18:00,
2013-12-17 11:20:00,71.7,63.7,30.02,NNE,26,13.0,23.0,76,0.00,,,0.00,Weather View 32 v70,2013-12-17 21:20:00,
2013-12-17 11:24:00,71.8,63.8,30.02,NNE,14,18.0,23.0,76,0.00,,,0.00,Weather View 32 v70,2013-12-17 21:24:00,
2013-12-17 11:25:00,71.7,63.3,30.02,NNE,29,16.0,23.0,75,0.00,,,0.00,Weather View 32 v70,2013-12-17 21:25:00,
2013-12-17 11:30:00,72.0,63.6,30.02,NNE,16,19.0,23.0,75,0.00,,,0.00,Weather View 32 v70,2013-12-17 21:30:00,
2013-12-17 11:35:00,71.9,64.3,30.02,North,1,14.0,23.0,77,0.00,,,0.00,Weather View 32 v70,2013-12-17 21:35:00,
2013-12-17 11:40:00,71.6,64.4,30.01,NNW,348,14.0,24.0,78,0.00,,,0.00,Weather View 32 v70,2013-12-17 21:40:00,
2013-12-17 11:46:00,71.5,64.3,30.02,NNW,343,14.0,24.0,78,0.00,,,0.00,Weather View 32 v70,2013-12-17 21:46:00,
2013-12-17 11:56:00,71.3,63.3,30.01,NNE,14,10.0,24.0,76,0.00,,,0.00,Weather View 32 v70,2013-12-17 21:56:00,
2013-12-17 12:03:00,71.4,63.4,30.00,North,5,17.0,24.0,76,0.00,,,0.00,Weather View 32 v70,2013-12-17 22:03:00,
2013-12-17 12:05:00,71.5,63.9,30.01,NNE,17,16.0,24.0,77,0.00,,,0.00,Weather View 32 v70,2013-12-17 22:05:00,
2013-12-17 12:09:00,71.7,64.1,30.00,North,10,19.0,24.0,77,0.00,,,0.00,Weather View 32 v70,2013-12-17 22:09:00,
2013-12-17 12:15:00,71.7,64.1,30.00,North,359,17.0,24.0,77,0.00,,,0.00,Weather View 32 v70,2013-12-17 22:15:00,
2013-12-17 12:20:00,71.9,63.1,29.99,NNE,23,17.0,24.0,74,0.00,,,0.00,Weather View 32 v70,2013-12-17 22:20:00,
2013-12-17 12:25:00,71.9,63.1,29.99,NNE,16,17.0,24.0,74,0.00,,,0.00,Weather View 32 v70,2013-12-17 22:25:00,
2013-12-17 12:30:00,71.9,63.9,30.00,NNE,16,15.0,24.0,76,0.00,,,0.00,Weather View 32 v70,2013-12-17 22:30:00,
2013-12-17 12:35:00,72.2,63.8,29.99,NNE,27,16.0,24.0,75,0.00,,,0.00,Weather View 32 v70,2013-12-17 22:35:00,
2013-12-17 12:40:00,72.3,63.5,29.99,North,353,18.0,23.0,74,0.00,,,0.00,Weather View 32 v70,2013-12-17 22:40:00,
2013-12-17 12:45:00,72.2,63.8,29.98,NNE,18,17.0,23.0,75,0.00,,,0.00,Weather View 32 v70,2013-12-17 22:45:00,
2013-12-17 12:55:00,72.2,62.6,29.98,NNE,24,23.0,23.0,72,0.00,,,0.00,Weather View 32 v70,2013-12-17 22:55:00,
2013-12-17 13:00:00,71.7,62.9,29.98,NNE,23,14.0,23.0,74,0.00,,,0.00,Weather View 32 v70,2013-12-17 23:00:00,
2013-12-17 13:05:00,71.9,63.1,29.97,NE,37,20.0,23.0,74,0.00,,,0.00,Weather View 32 v70,2013-12-17 23:05:00,
2013-12-17 13:10:00,71.8,63.0,29.97,North,8,21.0,23.0,74,0.00,,,0.00,Weather View 32 v70,2013-12-17 23:10:00,
2013-12-17 13:11:00,71.7,62.9,29.97,NNE,16,17.0,23.0,74,0.00,,,0.00,Weather View 32 v70,2013-12-17 23:11:00,
2013-12-17 13:16:00,71.7,63.7,29.97,NNE,22,13.0,23.0,76,0.00,,,0.00,Weather View 32 v70,2013-12-17 23:16:00,
2013-12-17 13:23:00,71.6,62.8,29.97,NW,320,13.0,23.0,74,0.00,,,0.00,Weather View 32 v70,2013-12-17 23:23:00,
2013-12-17 13:30:00,71.6,62.8,29.97,North,2,18.0,23.0,74,0.00,,,0.00,Weather View 32 v70,2013-12-17 23:30:00,
2013-12-17 13:32:00,71.7,64.1,29.96,NE,55,14.0,23.0,77,0.00,,,0.00,Weather View 32 v70,2013-12-17 23:32:00,
2013-12-17 13:35:00,71.6,63.6,29.97,North,4,19.0,23.0,76,0.00,,,0.00,Weather View 32 v70,2013-12-17 23:35:00,
2013-12-17 13:39:00,71.5,63.5,29.97,NNE,26,16.0,27.0,76,0.00,,,0.00,Weather View 32 v70,2013-12-17 23:39:00,
2013-12-17 13:40:00,71.5,63.9,29.97,NNE,17,15.0,27.0,77,0.00,,,0.00,Weather View 32 v70,2013-12-17 23:40:00,
2013-12-17 13:44:00,71.3,63.7,29.96,NNE,24,12.0,27.0,77,0.00,,,0.00,Weather View 32 v70,2013-12-17 23:44:00,
2013-12-17 13:50:00,71.4,63.4,29.96,NNE,13,13.0,27.0,76,0.00,,,0.00,Weather View 32 v70,2013-12-17 23:50:00,
2013-12-17 13:55:00,71.5,63.5,29.96,NE,40,17.0,27.0,76,0.00,,,0.00,Weather View 32 v70,2013-12-17 23:55:00,
2013-12-17 14:00:00,71.5,63.5,29.96,NNE,30,17.0,27.0,76,0.00,,,0.00,Weather View 32 v70,2013-12-18 00:00:00,
2013-12-17 14:05:00,71.5,63.5,29.96,North,10,20.0,27.0,76,0.00,,,0.00,Weather View 32 v70,2013-12-18 00:05:00,
2013-12-17 14:10:00,71.3,63.3,29.96,NE,35,16.0,27.0,76,0.00,,,0.00,Weather View 32 v70,2013-12-18 00:10:00,
2013-12-17 14:16:00,71.4,63.4,29.96,North,10,19.0,27.0,76,0.00,,,0.00,Weather View 32 v70,2013-12-18 00:16:00,
2013-12-17 14:20:00,71.2,63.2,29.95,North,9,14.0,27.0,76,0.00,,,0.00,Weather View 32 v70,2013-12-18 00:20:00,
2013-12-17 14:23:00,71.2,63.6,29.96,North,351,18.0,27.0,77,0.00,,,0.00,Weather View 32 v70,2013-12-18 00:23:00,
2013-12-17 14:28:00,71.1,63.1,29.96,NNE,20,12.0,27.0,76,0.00,,,0.00,Weather View 32 v70,2013-12-18 00:28:00,
2013-12-17 14:34:00,71.3,63.3,29.96,NNE,29,12.0,27.0,76,0.00,,,0.00,Weather View 32 v70,2013-12-18 00:34:00,
2013-12-17 14:40:00,71.2,63.6,29.96,NNE,14,19.0,23.0,77,0.00,,,0.00,Weather View 32 v70,2013-12-18 00:40:00,
2013-12-17 14:45:00,71.5,63.9,29.95,NNE,20,19.0,23.0,77,0.00,,,0.00,Weather View 32 v70,2013-12-18 00:45:00,
2013-12-17 14:46:00,71.4,63.4,29.95,NNE,14,19.0,23.0,76,0.00,,,0.00,Weather View 32 v70,2013-12-18 00:46:00,
2013-12-17 14:50:00,71.1,63.9,29.95,NNE,27,16.0,23.0,78,0.00,,,0.00,Weather View 32 v70,2013-12-18 00:50:00,
2013-12-17 14:55:00,71.1,63.9,29.95,NNE,14,14.0,23.0,78,0.00,,,0.00,Weather View 32 v70,2013-12-18 00:55:00,
2013-12-17 14:58:00,71.1,63.5,29.95,NNE,12,18.0,23.0,77,0.00,,,0.00,Weather View 32 v70,2013-12-18 00:58:00,
2013-12-17 15:00:00,71.0,63.0,29.96,NNE,16,15.0,23.0,76,0.00,,,0.00,Weather View 32 v70,2013-12-18 01:00:00,
2013-12-17 15:05:00,71.1,63.5,29.96,NNE,29,21.0,23.0,77,0.00,,,0.00,Weather View 32 v70,2013-12-18 01:05:00,
2013-12-17 15:07:00,71.1,63.5,29.95,North,10,18.0,25.0,77,0.00,,,0.00,Weather View 32 v70,2013-12-18 01:07:00,
2013-12-17 15:12:00,71.0,63.4,29.96,NE,37,15.0,25.0,77,0.00,,,0.00,Weather View 32 v70,2013-12-18 01:12:00,
2013-12-17 15:17:00,71.2,64.0,29.97,NNE,20,14.0,25.0,78,0.00,,,0.00,Weather View 32 v70,2013-12-18 01:17:00,
2013-12-17 15:22:00,70.7,63.5,29.96,NNE,19,17.0,25.0,78,0.00,,,0.00,Weather View 32 v70,2013-12-18 01:22:00,
2013-12-17 15:28:00,70.6,63.4,29.95,NNE,16,18.0,25.0,78,0.00,,,0.00,Weather View 32 v70,2013-12-18 01:28:00,
2013-12-17 15:34:00,70.7,63.5,29.95,North,9,18.0,25.0,78,0.00,,,0.00,Weather View 32 v70,2013-12-18 01:34:00,
2013-12-17 15:40:00,70.6,63.7,29.96,NNE,28,17.0,25.0,79,0.00,,,0.00,Weather View 32 v70,2013-12-18 01:40:00,
2013-12-17 15:45:00,70.8,63.9,29.96,NNE,25,16.0,25.0,79,0.00,,,0.00,Weather View 32 v70,2013-12-18 01:45:00,
2013-12-17 15:51:00,70.5,63.6,29.96,North,350,18.0,25.0,79,0.00,,,0.00,Weather View 32 v70,2013-12-18 01:51:00,
2013-12-17 15:56:00,70.5,64.0,29.96,North,353,15.0,25.0,80,0.00,,,0.00,Weather View 32 v70,2013-12-18 01:56:00,
2013-12-17 16:01:00,70.3,63.5,29.95,NNE,16,18.0,25.0,79,0.00,,,0.00,Weather View 32 v70,2013-12-18 02:01:00,
2013-12-17 16:07:00,70.3,63.8,29.97,NNE,14,16.0,23.0,80,0.00,,,0.00,Weather View 32 v70,2013-12-18 02:07:00,
2013-12-17 16:12:00,70.2,63.7,29.97,NNE,22,16.0,23.0,80,0.00,,,0.00,Weather View 32 v70,2013-12-18 02:12:00,
2013-12-17 16:17:00,70.1,63.6,29.97,NNE,22,17.0,23.0,80,0.00,,,0.00,Weather View 32 v70,2013-12-18 02:17:00,
2013-12-17 16:22:00,70.0,63.2,29.97,NNE,14,15.0,23.0,79,0.00,,,0.00,Weather View 32 v70,2013-12-18 02:22:00,
2013-12-17 16:28:00,69.9,63.4,29.97,NNE,14,17.0,23.0,80,0.00,,,0.00,Weather View 32 v70,2013-12-18 02:28:00,
2013-12-17 16:30:00,69.9,63.4,29.97,NNE,29,15.0,23.0,80,0.00,,,0.00,Weather View 32 v70,2013-12-18 02:30:00,
2013-12-17 16:34:00,69.9,63.8,29.98,NNE,23,9.0,23.0,81,0.00,,,0.00,Weather View 32 v70,2013-12-18 02:34:00,
2013-12-17 16:35:00,69.9,63.8,29.98,NNE,19,13.0,23.0,81,0.00,,,0.00,Weather View 32 v70,2013-12-18 02:35:00,
2013-12-17 16:40:00,69.8,63.3,29.98,NNE,16,11.0,22.0,80,0.00,,,0.00,Weather View 32 v70,2013-12-18 02:40:00,
2013-12-17 16:45:00,69.8,63.3,29.98,NNW,347,11.0,22.0,80,0.00,,,0.00,Weather View 32 v70,2013-12-18 02:45:00,
2013-12-17 16:47:00,69.8,63.7,29.99,NNE,25,11.0,22.0,81,0.00,,,0.00,Weather View 32 v70,2013-12-18 02:47:00,
2013-12-17 16:54:00,69.7,63.9,29.98,North,358,16.0,22.0,82,0.00,,,0.00,Weather View 32 v70,2013-12-18 02:54:00,
2013-12-17 17:01:00,69.6,63.8,29.98,North,356,11.0,22.0,82,0.00,,,0.00,Weather View 32 v70,2013-12-18 03:01:00,
2013-12-17 17:07:00,69.6,63.8,29.98,NNE,25,11.0,22.0,82,0.00,,,0.00,Weather View 32 v70,2013-12-18 03:07:00,
2013-12-17 17:15:00,69.5,63.4,29.98,North,5,12.0,22.0,81,0.00,,,0.00,Weather View 32 v70,2013-12-18 03:15:00,
2013-12-17 17:20:00,69.4,63.3,29.99,NNW,344,15.0,22.0,81,0.00,,,0.00,Weather View 32 v70,2013-12-18 03:20:00,
2013-12-17 17:26:00,69.4,63.6,30.00,NNE,17,9.0,19.0,82,0.00,,,0.00,Weather View 32 v70,2013-12-18 03:26:00,
2013-12-17 17:32:00,69.4,63.3,30.00,NW,326,8.0,18.0,81,0.00,,,0.00,Weather View 32 v70,2013-12-18 03:32:00,
2013-12-17 17:37:00,69.3,63.2,30.00,NE,36,14.0,18.0,81,0.00,,,0.00,Weather View 32 v70,2013-12-18 03:37:00,
2013-12-17 17:42:00,69.3,63.2,30.00,North,349,11.0,18.0,81,0.00,,,0.00,Weather View 32 v70,2013-12-18 03:42:00,
2013-12-17 17:47:00,69.3,63.2,30.00,North,351,7.0,18.0,81,0.00,,,0.00,Weather View 32 v70,2013-12-18 03:47:00,
2013-12-17 17:52:00,69.3,63.2,30.00,North,349,9.0,18.0,81,0.00,,,0.00,Weather View 32 v70,2013-12-18 03:52:00,
2013-12-17 17:57:00,69.3,63.2,30.01,North,5,11.0,18.0,81,0.00,,,0.00,Weather View 32 v70,2013-12-18 03:57:00,
2013-12-17 18:02:00,69.3,63.2,30.01,NNW,344,10.0,18.0,81,0.00,,,0.00,Weather View 32 v70,2013-12-18 04:02:00,
2013-12-17 18:07:00,69.3,63.5,30.01,NNW,345,7.0,18.0,82,0.00,,,0.00,Weather View 32 v70,2013-12-18 04:07:00,
2013-12-17 18:12:00,69.3,63.5,30.01,NNW,334,11.0,18.0,82,0.00,,,0.00,Weather View 32 v70,2013-12-18 04:12:00,
2013-12-17 18:17:00,69.3,63.5,30.02,NNE,22,11.0,18.0,82,0.00,,,0.00,Weather View 32 v70,2013-12-18 04:17:00,
2013-12-17 18:22:00,69.3,63.5,30.02,NW,323,8.0,17.0,82,0.00,,,0.00,Weather View 32 v70,2013-12-18 04:22:00,
2013-12-17 18:27:00,69.2,63.5,30.02,North,7,12.0,17.0,82,0.00,,,0.00,Weather View 32 v70,2013-12-18 04:27:00,
2013-12-17 18:32:00,69.2,63.5,30.02,North,351,20.0,20.0,82,0.00,,,0.00,Weather View 32 v70,2013-12-18 04:32:00,
2013-12-17 18:37:00,69.2,63.5,30.02,NW,324,20.0,20.0,82,0.00,,,0.00,Weather View 32 v70,2013-12-18 04:37:00,
2013-12-17 18:42:00,69.2,63.5,30.02,North,349,12.0,20.0,82,0.00,,,0.00,Weather View 32 v70,2013-12-18 04:42:00,
2013-12-17 18:47:00,69.1,63.0,30.02,North,10,12.0,20.0,81,0.00,,,0.00,Weather View 32 v70,2013-12-18 04:47:00,
2013-12-17 18:52:00,69.2,62.7,30.02,NW,323,13.0,20.0,80,0.00,,,0.00,Weather View 32 v70,2013-12-18 04:52:00,
2013-12-17 18:57:00,69.2,62.7,30.02,NNW,344,14.0,22.0,80,0.00,,,0.00,Weather View 32 v70,2013-12-18 04:57:00,
2013-12-17 19:01:00,69.0,62.2,30.02,NNW,343,11.0,22.0,79,0.00,,,0.00,Weather View 32 v70,2013-12-18 05:01:00,
2013-12-17 19:02:00,69.1,62.6,30.02,NNW,338,15.0,22.0,80,0.00,,,0.00,Weather View 32 v70,2013-12-18 05:02:00,
2013-12-17 19:07:00,69.2,62.0,30.02,NNW,327,10.0,22.0,78,0.00,,,0.00,Weather View 32 v70,2013-12-18 05:07:00,
2013-12-17 19:12:00,69.5,61.6,30.02,North,355,16.0,22.0,76,0.00,,,0.00,Weather View 32 v70,2013-12-18 05:12:00,
2013-12-17 19:17:00,69.7,61.4,30.02,NW,306,7.0,22.0,75,0.00,,,0.00,Weather View 32 v70,2013-12-18 05:17:00,
2013-12-17 19:22:00,69.8,60.7,30.03,North,359,13.0,22.0,73,0.00,,,0.00,Weather View 32 v70,2013-12-18 05:22:00,
2013-12-17 19:27:00,69.9,60.4,30.03,NNW,345,13.0,22.0,72,0.00,,,0.00,Weather View 32 v70,2013-12-18 05:27:00,
2013-12-17 19:32:00,69.9,60.8,30.03,North,2,13.0,22.0,73,0.00,,,0.00,Weather View 32 v70,2013-12-18 05:32:00,
2013-12-17 19:37:00,69.9,61.2,30.03,NNE,14,15.0,22.0,74,0.00,,,0.00,Weather View 32 v70,2013-12-18 05:37:00,
2013-12-17 19:42:00,69.7,61.4,30.04,NW,322,7.0,22.0,75,0.00,,,0.00,Weather View 32 v70,2013-12-18 05:42:00,
2013-12-17 19:47:00,69.5,61.6,30.04,NNE,14,9.0,22.0,76,0.00,,,0.00,Weather View 32 v70,2013-12-18 05:47:00,
2013-12-17 19:52:00,69.4,61.9,30.04,North,356,12.0,22.0,77,0.00,,,0.00,Weather View 32 v70,2013-12-18 05:52:00,
2013-12-17 19:57:00,69.4,62.2,30.04,NNW,341,8.0,22.0,78,0.00,,,0.00,Weather View 32 v70,2013-12-18 05:57:00,
2013-12-17 20:02:00,69.3,62.5,30.04,North,359,5.0,22.0,79,0.00,,,0.00,Weather View 32 v70,2013-12-18 06:02:00,
2013-12-17 20:07:00,69.3,62.8,30.04,North,351,8.0,22.0,80,0.00,,,0.00,Weather View 32 v70,2013-12-18 06:07:00,
2013-12-17 20:12:00,69.2,62.7,30.04,NW,314,15.0,22.0,80,0.00,,,0.00,Weather View 32 v70,2013-12-18 06:12:00,
2013-12-17 20:17:00,69.3,62.8,30.05,NNE,23,7.0,22.0,80,0.00,,,0.00,Weather View 32 v70,2013-12-18 06:17:00,
2013-12-17 20:22:00,69.3,62.8,30.04,North,7,8.0,22.0,80,0.00,,,0.00,Weather View 32 v70,2013-12-18 06:22:00,
2013-12-17 20:27:00,69.3,62.8,30.05,North,359,12.0,22.0,80,0.00,,,0.00,Weather View 32 v70,2013-12-18 06:27:00,
2013-12-17 20:32:00,69.4,62.9,30.05,NW,326,12.0,22.0,80,0.00,,,0.00,Weather View 32 v70,2013-12-18 06:32:00,
2013-12-17 20:37:00,69.5,63.4,30.05,NNW,327,10.0,22.0,81,0.00,,,0.00,Weather View 32 v70,2013-12-18 06:37:00,
2013-12-17 20:42:00,69.4,63.3,30.05,North,355,13.0,22.0,81,0.00,,,0.00,Weather View 32 v70,2013-12-18 06:42:00,
2013-12-17 20:47:00,69.4,63.6,30.05,NW,326,15.0,22.0,82,0.00,,,0.00,Weather View 32 v70,2013-12-18 06:47:00,
2013-12-17 20:52:00,69.3,63.5,30.05,NNE,17,13.0,22.0,82,0.00,,,0.00,Weather View 32 v70,2013-12-18 06:52:00,
2013-12-17 20:57:00,69.3,63.5,30.05,North,351,7.0,22.0,82,0.00,,,0.00,Weather View 32 v70,2013-12-18 06:57:00,
2013-12-17 21:02:00,69.2,63.5,30.05,NW,326,10.0,22.0,82,0.00,,,0.00,Weather View 32 v70,2013-12-18 07:02:00,
2013-12-17 21:07:00,69.1,63.4,30.05,North,9,10.0,22.0,82,0.00,,,0.00,Weather View 32 v70,2013-12-18 07:07:00,
2013-12-17 21:12:00,69.1,63.4,30.05,NNW,330,7.0,22.0,82,0.00,,,0.00,Weather View 32 v70,2013-12-18 07:12:00,
2013-12-17 21:17:00,69.3,63.2,30.05,NNW,347,15.0,20.0,81,0.00,,,0.00,Weather View 32 v70,2013-12-18 07:17:00,
2013-12-17 21:22:00,69.6,63.1,30.04,NNW,328,14.0,20.0,80,0.00,,,0.00,Weather View 32 v70,2013-12-18 07:22:00,
2013-12-17 21:27:00,69.6,63.1,30.04,North,358,19.0,20.0,80,0.00,,,0.00,Weather View 32 v70,2013-12-18 07:27:00,
2013-12-17 21:32:00,69.5,63.4,30.05,NNW,345,14.0,21.0,81,0.00,,,0.00,Weather View 32 v70,2013-12-18 07:32:00,
2013-12-17 21:37:00,69.5,63.7,30.05,NNW,336,15.0,21.0,82,0.00,,,0.00,Weather View 32 v70,2013-12-18 07:37:00,
2013-12-17 21:42:00,69.4,64.0,30.05,NNW,334,15.0,21.0,83,0.00,,,0.00,Weather View 32 v70,2013-12-18 07:42:00,
2013-12-17 21:47:00,69.4,64.0,30.05,North,351,16.0,21.0,83,0.00,,,0.00,Weather View 32 v70,2013-12-18 07:47:00,
2013-12-17 21:52:00,69.3,63.9,30.05,North,354,15.0,21.0,83,0.00,,,0.00,Weather View 32 v70,2013-12-18 07:52:00,
2013-12-17 21:57:00,69.3,63.9,30.05,NNW,339,13.0,21.0,83,0.00,,,0.00,Weather View 32 v70,2013-12-18 07:57:00,
2013-12-17 22:02:00,69.3,64.2,30.05,NNW,332,16.0,21.0,84,0.00,,,0.00,Weather View 32 v70,2013-12-18 08:02:00,
2013-12-17 22:07:00,69.3,64.2,30.04,North,4,14.0,21.0,84,0.00,,,0.00,Weather View 32 v70,2013-12-18 08:07:00,
2013-12-17 22:12:00,69.2,64.1,30.04,North,351,19.0,21.0,84,0.00,,,0.00,Weather View 32 v70,2013-12-18 08:12:00,
2013-12-17 22:17:00,69.2,64.1,30.05,North,354,16.0,22.0,84,0.00,,,0.00,Weather View 32 v70,2013-12-18 08:17:00,
2013-12-17 22:22:00,69.1,64.0,30.04,North,10,17.0,22.0,84,0.00,,,0.00,Weather View 32 v70,2013-12-18 08:22:00,
2013-12-17 22:27:00,69.2,64.1,30.04,NNW,340,17.0,22.0,84,0.00,,,0.00,Weather View 32 v70,2013-12-18 08:27:00,
2013-12-17 22:32:00,69.1,64.0,30.05,NNW,345,18.0,22.0,84,0.00,,,0.00,Weather View 32 v70,2013-12-18 08:32:00,
2013-12-17 22:37:00,69.2,64.1,30.05,NNW,345,17.0,23.0,84,0.00,,,0.00,Weather View 32 v70,2013-12-18 08:37:00,
2013-12-17 22:42:00,69.1,64.0,30.05,NNW,335,14.0,23.0,84,0.00,,,0.00,Weather View 32 v70,2013-12-18 08:42:00,
2013-12-17 22:47:00,69.1,64.0,30.05,NNW,343,11.0,23.0,84,0.00,,,0.00,Weather View 32 v70,2013-12-18 08:47:00,
2013-12-17 22:52:00,69.1,64.0,30.04,North,9,17.0,23.0,84,0.00,,,0.00,Weather View 32 v70,2013-12-18 08:52:00,
2013-12-17 22:57:00,69.0,64.3,30.05,NNW,347,17.0,23.0,85,0.00,,,0.00,Weather View 32 v70,2013-12-18 08:57:00,
2013-12-17 23:02:00,68.9,64.2,30.05,North,354,12.0,23.0,85,0.00,,,0.00,Weather View 32 v70,2013-12-18 09:02:00,
2013-12-17 23:07:00,68.9,63.8,30.05,North,360,18.0,23.0,84,0.00,,,0.00,Weather View 32 v70,2013-12-18 09:07:00,
2013-12-17 23:12:00,69.0,63.9,30.04,North,2,15.0,23.0,84,0.00,,,0.00,Weather View 32 v70,2013-12-18 09:12:00,
2013-12-17 23:17:00,69.0,63.9,30.05,North,4,14.0,23.0,84,0.00,,,0.00,Weather View 32 v70,2013-12-18 09:17:00,
2013-12-17 23:22:00,69.0,63.9,30.05,NNW,340,15.0,23.0,84,0.00,,,0.00,Weather View 32 v70,2013-12-18 09:22:00,
2013-12-17 23:27:00,68.9,63.8,30.05,North,354,18.0,23.0,84,0.00,,,0.00,Weather View 32 v70,2013-12-18 09:27:00,
2013-12-17 23:32:00,68.9,63.8,30.04,North,349,14.0,23.0,84,0.00,,,0.00,Weather View 32 v70,2013-12-18 09:32:00,
2013-12-17 23:37:00,68.9,63.8,30.04,North,359,12.0,22.0,84,0.00,,,0.00,Weather View 32 v70,2013-12-18 09:37:00,
2013-12-17 23:42:00,68.9,63.8,30.05,NW,312,13.0,22.0,84,0.00,,,0.00,Weather View 32 v70,2013-12-18 09:42:00,
2013-12-17 23:47:00,68.9,63.8,30.05,North,352,11.0,22.0,84,0.00,,,0.00,Weather View 32 v70,2013-12-18 09:47:00,
2013-12-17 23:52:00,68.9,63.5,30.05,North,360,11.0,22.0,83,0.00,,,0.00,Weather View 32 v70,2013-12-18 09:52:00,
2013-12-17 23:57:00,68.8,63.4,30.05,NNW,341,13.0,22.0,83,0.00,,,0.00,Weather View 32 v70,2013-12-18 09:57:00,